Regional Weather Roundup
Issued by NWS Upton, NY

Current Version | Previous Version | Graphics & Text | Print | Product List | Glossary Off
Versions: 1 2 3 4 5 6 7 8 9 10 11 12 13 14 15 16 17 18 19 20 21 22 23 24 25 26 27 28

000
ASUS41 KOKX 250005
RWROKX

REGIONAL WEATHER ROUNDUP
NATIONAL WEATHER SERVICE NEW YORK NY
800 PM EDT SUN JUL 24 2016

NOTE: "FAIR" INDICATES FEW OR NO CLOUDS BELOW 12,000 FEET WITH NO
SIGNIFICANT WEATHER AND/OR OBSTRUCTIONS TO VISIBILITY.

NYZ071-072-176-178-NJZ106-104-250100-
NEW YORK CITY METRO AREA

CITY           SKY/WX    TMP DP  RH WIND       PRES   REMARKS
Central Park   MOCLDY    84  67  56 S3        29.97R
LaGuardia APRT MOCLDY    85  68  56 S9        29.93R
Kennedy INTL   MOCLDY    78  69  73 S17       29.96R
Newark/Liberty MOCLDY    87  67  51 S14       29.93R HX  90
BRNX BOT. GARD   N/A     81  66  61 SE3       29.94F
Wall St Helipt CLOUDY    84  70  61 SW7       29.95S
Teterboro      MOCLDY    90  60  36 W7        29.92R
$$

NYZ177-179-078>081-250100-
LONG ISLAND NEW YORK

CITY           SKY/WX    TMP DP  RH WIND       PRES   REMARKS
FARMINGDALE    CLOUDY    78  69  73 SW8       29.97R
ISLIP          MOCLDY    78  69  73 SW9       29.97R
SHIRLEY        CLEAR     77  69  76 S6        29.98R
RIVERHEAD      NOT AVBL
WESTHAMPTON    PTCLDY    76  66  71 SW8       29.99R
SOUTHAMPTON      N/A     75  70  83 W6        29.93S
BRIDGEHAMPTON    N/A     75  66  73 W2        29.96R
EAST HAMPTON   FAIR      75  65  71 SW9       29.96S
MONTAUK POINT    N/A     76  66  71 SW8       29.98R
$$

NYZ052-065-067-250100-
HUDSON VALLEY

CITY           SKY/WX    TMP DP  RH WIND       PRES   REMARKS
WHITE PLAINS   PTCLDY    78  65  63 SE7       29.96R
NEWBURGH       PTCLDY    86  61  42 VRB5      29.96S
MONTGOMERY     PTCLDY    81  68  64 N3        29.94S
POUGHKEEPSIE   PTCLDY    83  67  58 CALM      29.92S
ALBANY         MOCLDY    81  56  42 NW5       29.95S
$$

NJZ001-105-106-008-010-013-015-019>022-104-250100-
NEW JERSEY

CITY           SKY/WX    TMP DP  RH WIND       PRES   REMARKS
NEWARK/LIBERTY MOCLDY    87  67  51 S14       29.93R HX  90
TETERBORO      MOCLDY    90  60  36 W7        29.92R
CALDWELL       CLOUDY    89  63  41 SW3       29.93S HX  90
MORRISTOWN     MOCLDY    84  73  70 CALM      29.94S HX  91
SOMERVILLE     PTCLDY    82  66  58 CALM      29.92R
SUSSEX         MOCLDY    83  70  64 CALM      29.96S
ANDOVER          N/A     80  69  69 CALM      29.96S
TRENTON        PTCLDY    88  62  41 SW6       29.94R
MILLVILLE      PTCLDY    81  67  62 CALM      29.98R
ATLANTIC CITY  CLOUDY    82  66  58 S6        29.98R
WRIGHTSTOWN    PTCLDY    82  69  64 S9        29.94R
TOMS RIVER     CLOUDY    82  66  57 S6        29.97S
BELMAR         CLOUDY    84  66  54 S8        29.97S
$$

PAZ047>061-062-071-250100-
EASTERN PENNSYLVANIA

CITY           SKY/WX    TMP DP  RH WIND       PRES   REMARKS
PHILADELPHIA   MOCLDY    89  66  46 S9        29.96R HX  91
ALLENTOWN      PTCLDY    88  63  43 SW9       29.95R
SCRANTON       MOCLDY    87  58  37 SW3       29.96S
$$

CTZ002-004>006-009-010-012-RIZ004-006-007-MAZ004-011-015-250100-
SOUTHERN NEW ENGLAND
 IN CT

CITY           SKY/WX    TMP DP  RH WIND       PRES   REMARKS
BRADLEY INTL   MOCLDY    83  56  39 N5        29.94R
HARTFORD       CLOUDY    90  55  30 N6        29.94R
DANBURY        PTCLDY    82  65  56 CALM      29.97R
WTRBRY/OXFORD  MOCLDY    81  63  54 S6        30.01R
BRIDGEPORT     PTCLDY    81  67  62 S8        29.96R
MERIDEN        PTCLDY    84  63  49 VRB5      29.95R
NEW HAVEN      MOCLDY    80  66  62 SW7       29.96R
CHESTER        FAIR      79  66  65 SW5       29.97R
GROTON         MOCLDY    76  66  71 SW6       29.95R
WILLIMANTIC    NOT AVBL

 IN RI

CITY           SKY/WX    TMP DP  RH WIND       PRES   REMARKS
PROVIDENCE     MOCLDY    81  63  54 SW12      29.94R
BLOCK ISLAND   PTCLDY    73  68  84 SW12      29.97R
WESTERLY       MOCLDY    77  64  64 W5        29.96R

 IN MA

CITY           SKY/WX    TMP DP  RH WIND       PRES   REMARKS
BOSTON         PTCLDY    75  63  66 N6        29.94R
WORCESTER      CLEAR     78  53  41 NW6       29.99R
WESTFIELD      PTCLDY    83  55  38 N3        29.95R
PROVINCETOWN   PTCLDY    74  65  73 S8        29.95R
NANTUCKET      PTCLDY    69  66  90 S5        29.97R
$$

ANZ330-335-338-340-345-350-353-355-250100-
COASTAL MARINE OBSERVATIONS


STATION/POSITION TIME  SKY/WX   TEMP    WIND        PRES    VSBY  WAVE
                                AIR SEA DIR/SP/G                  HT/PER
                 (UTC)          (F)     (DEG/KT/KT) (MB)    (MI)  (FT/S)
NY HARB ENTRANCE 2250            77 74  190/ 14/ 17 1013.9          2/ 3
20S FIRE ISLAND  2250            76 74  200/ 10/ 12 1014.4          2/ 6
GREAT SOUTH BAY  2330            77 81  200/  6/  8   N/A
23 SSW MONTAUK P 2250            75 72  210/  8/ 10 1014.9          2/ 6
15 E BARNEGAT LI 2322               77                N/A           2/ 6
HUDSON CANYON    2250            78 78              1015.3          3/ 6
KINGS POINT      2300            80 72                N/A
EXECUTION ROCKS  2300            81     160/  6/ 10   N/A
CENTRAL LI SOUND 2300            80 75  210/ 14/ 16   N/A           1
EASTERN LI SOUND 2300            73 66  230/ 10/ 14   N/A
ROBBINS REEF     2300            81                   N/A
$$


>>>>>>>>>>>>>>>>>>>>>>>>>>>> KEY <<<<<<<<<<<<<<<<<<<<<<<<<<<
>                                                          <
>     SKY/WX - SKY CONDITION/PRESENT WEATHER               <
>     TMP    - TEMPERATURE IN FAHRENHEIT                   <
>     DP     - DEWPOINT IN FAHRENHEIT                      <
>     RH     - RELATIVE HUMIDITY IN PERCENT                <
>     WIND   - DIRECTION AND SPEED IN MPH                  <
>     PRES   - MEAN SEA LEVEL PRESSURE IN INCHES OF HG     <
>     WCI    - WIND CHILL INDEX                            <
>     VSB    - VISIBILITY IN MILES                         <
>     HX     - HEAT INDEX                                  <
>     TC     - TEMPERATURE IN CELSIUS                      <
>     VRB    - VARIABLE WIND DIRECTION                     <
>                                                          <
>>>>>>>>>>>>>>>>>>>>>>>>>>>> KEY <<<<<<<<<<<<<<<<<<<<<<<<<<<






USA.gov is the U.S. government's official web portal to all federal, state and local government web resources and services.